Showing default

TIGRISAT, 40043

Orbit data source: Space-Track

TIGRISAT, 40043 is an Iraqi payload satellite in SSO that was launched on Thu, 19 Jun 2014 UTC via a DNEPR launch vehicle from the Orenburg, Russia (OREN). Payload-class satellites include a variety of spacecraft equipped with specific instruments for various scientific and technological missions. These include communications satellites like Starlink; space stations such as the ISS; scientific satellites like the Hubble; Earth observation satellites from companies like Planet Labs, Umbra, and HawkEye 360; GPS; miniature CubeSats for education and research; and military/defense satellites.

Loading next visibility...
Identifier
40043, 2014-033AK
Orbit
SSO
Country
Flag of UnknownUnknown / IRAQ
Related business
Manufacturer
Roma La Sapienza
Mission
Operational Civil Technology
Bus & Motor
CUBESAT 3U, Unknown motor
Mass
3.6 kg wet, 3.6 kg dry
Launch date (UTC)
2014-06-19 (11 years ago)
Launch vehicle
DNEPR
Launch site
Orenburg, Russia (OREN)
Object type
Payload
Rocket body
Debris
Shape & HBR
Box, 0.1 m
Radar Cross Section
0.075 m², Small (<0.1 m²)

Expand to show TLE details & history
Last TLE update: 5 hours ago

TLE from 5 hours ago
0 TIGRISAT
1 40043U 14033AK  25349.93778464  .00001743  00000-0  21071-3 0  9992
2 40043  97.7558 139.5574 0049300 316.9041  42.8318 14.84139750618438
Epoch: 2025-12-15T22:30Z
TLE epoch observation values (Epoch: 2025-12-15T22:30:24.592Z)
Latitude
-0.00006°
Longitude
77.12576°
Altitude
594.105 km
Speed
7.576 km/s
True Right ascension
09h 18m 13s
True Declination
0° 00' 00"
Sunlit
Object was in full shadow at epoch
Visualization orbit readout
Latitude
Unknown
Longitude
Unknown
Altitude
Unknown
Speed
Unknown
Apparent Right ascension
Unknown
Apparent Declination
Unknown
Sunlit
N/A
Visualization observer readout
Local Sidereal Time
02:35:33
Azimuth
Unknown
Elevation
Unknown
Doppler factor
Unknown
Orbital elements
Apogee altitude
647.784 km
Perigee altitude
578.848 km
Semi-major axis
6,991.453 km
Eccentricity
0.00493
Inclination
97.7558°
RAAN
139.5574°
Arg. of periapsis
316.9041°
True anomaly
43.21761°
Mean anomaly
42.8318°
Eccentric anomaly
43.02453°
Mean motion
3.71272 °/min
Orbital period
96.96 mins
BSTAR
0.00021071
Loading maneuver chart data...
Computing Atmospheric mass density...
Loading historical data...
Loading historical data...
Loading historical data...
Loading historical data...
Loading historical data...
Loading historical data...
Loading historical data...

Documentation

Showing up to 5 results
|